Regional Weather Roundup
Issued by NWS

Home | Current Version | Previous Version | Graphics & Text | Print | Product List | Glossary On
Versions: 1 2 3 4 5 6 7 8 9 10 11 12 13 14 15 16 17 18 19 20 21 22 23 24 25 26 27 28 29 30 31 32 33 34 35 36 37 38 39 40 41 42 43 44 45 46 47 48 49 50
000
ASUS43 KBIS 280710
RWRND

NORTH DAKOTA REGIONAL WEATHER ROUNDUP
NATIONAL WEATHER SERVICE BISMARCK ND
200 AM CDT THU MAY 28 2015

NOTE: "FAIR" INDICATES FEW OR NO CLOUDS BELOW 12,000 FEET WITH NO
SIGNIFICANT WEATHER AND/OR OBSTRUCTIONS TO VISIBILITY.


NDZ001>003-009>011-017-280800-
NORTHWEST NORTH DAKOTA

CITY           SKY/WX    TMP DP  RH WIND       PRES   REMARKS
WILLISTON      CLOUDY    58  54  86 NE5       29.89F
MINOT          CLOUDY    59  56  89 E9        29.93F
MINOT AFB      CLOUDY    59  59 100 SE10      29.92F
$$

NDZ018>021-031>035-040>046-280800-
SOUTHWEST NORTH DAKOTA

CITY           SKY/WX    TMP DP  RH WIND       PRES   REMARKS
BISMARCK       CLOUDY    60  58  92 E7        29.93S
DICKINSON      MOCLDY    54  52  93 W5        29.90S
GARRISON         N/A     60  56  86 E9        29.91F
HETTINGER ARPT PTCLDY    51  50  96 E3        29.92F FOG
$$

NDZ004>008-012>016-024-026-027-054-280800-
NORTHEAST NORTH DAKOTA

CITY           SKY/WX    TMP DP  RH WIND       PRES   REMARKS
GRAND FORKS    CLOUDY    62  50  64 CALM      29.95F
GRND FRKS AFB  LGT RAIN  59  52  77 NW9       29.98R
DEVILS LAKE    CLOUDY    61  54  77 NE12      29.95F
$$

NDZ022-023-025-028>030-036>039-047>053-280800-
SOUTHEAST NORTH DAKOTA

CITY           SKY/WX    TMP DP  RH WIND       PRES   REMARKS
FARGO          CLOUDY    65  54  67 E10       29.95S
JAMESTOWN      CLOUDY    62  57  83 SW6       29.98R
$$




USA.gov is the U.S. government's official web portal to all federal, state and local government web resources and services.